Weather History for Watford City, ND

Change the Weather History Date:

Monday, February 24, 2014

  Actual Average (KISN) Record (KISN)
Temperature  
Mean Temperature 0 °F 20 °F  
Max Temperature 5 °F 31 °F 58 °F (1958)
Min Temperature -5 °F 10 °F -35 °F (2003)
Degree Days  
Heating Degree Days 65 45  
Month to date heating degree days 1171  
Since 1 July heating degree days 6592  
Cooling Degree Days 0 0  
Month to date cooling degree days 0  
Year to date cooling degree days 0  
Moisture  
Dew Point -9 °F    
Average Humidity 68    
Maximum Humidity 78    
Minimum Humidity 52    
Precipitation  
Precipitation 0.17 in 0.01 in 0.31 in (1994)
Month to date precipitation 0.32  
Year to date precipitation 0.91  
Sea Level Pressure  
Sea Level Pressure 30.33 in    
Wind  
Wind Speed 7 mph (NW)    
Max Wind Speed 15 mph    
Max Gust Speed 22 mph    
Visibility 8 miles    
Events Rain , Snow    
T = Trace of Precipitation, MM = Missing Value Source: NWS Daily Summary

Daily Weather History Graph

Daily Weather History Graph

Search for Another Location

Airport:

Trip Planner

Search our weather history database for the weather conditions in past years. The results will help you decide how hot, cold, wet, or windy it might be!

Date:

Astronomy

Feb. 24, 2014 Rise Set
Actual Time 7:43 AM CST 6:30 PM CST
Civil Twilight 7:11 AM CST 7:01 PM CST
Nautical Twilight 6:35 AM CST 7:37 PM CST
Astronomical Twilight 6:00 AM CST 8:13 PM CST
Moon 3:57 AM CST (2/24) 1:19 PM CST (2/24)
Length of Visible Light 11h 49m
Length of Day
10h 47m
Waning Crescent, 28% of the Moon is Illuminated
Feb 24
Waning Crescent
Mar 1
New
Mar 8
First Quarter
Mar 16
Full
Mar 23
Last Quarter

Hourly Weather History & Observations

Time (CST) Temp. Windchill Dew Point Humidity Pressure Visibility Wind Dir Wind Speed Gust Speed Precip Events Conditions
12:15 AM -2.2 °F -10.4 °F -9.4 °F 71% 30.30 in 10.0 mi ENE 3.5 mph - N/A   Overcast
12:35 AM -2.2 °F -10.4 °F -9.4 °F 71% 30.30 in 10.0 mi ENE 3.5 mph - N/A   Mostly Cloudy
12:55 AM -2.2 °F - -9.4 °F 71% 30.29 in 10.0 mi Calm Calm - N/A   Clear
1:15 AM -2.2 °F - -9.4 °F 71% 30.29 in 10.0 mi Calm Calm - N/A   Clear
1:35 AM -2.2 °F - -9.4 °F 71% 30.29 in 10.0 mi Calm Calm - N/A   Clear
1:55 AM -2.2 °F - -9.4 °F 71% 30.29 in 10.0 mi Calm Calm - N/A   Clear
2:15 AM -2.2 °F - -9.4 °F 71% 30.29 in 10.0 mi Calm Calm - N/A   Clear
2:35 AM -0.4 °F -8.3 °F -9.4 °F 66% 30.29 in 10.0 mi NNE 3.5 mph - N/A   Clear
2:55 AM -0.4 °F -8.3 °F -9.4 °F 66% 30.29 in 10.0 mi NNE 3.5 mph - N/A   Clear
3:15 AM -0.4 °F -8.3 °F -9.4 °F 66% 30.29 in 10.0 mi NE 3.5 mph - N/A   Partly Cloudy
3:35 AM -0.4 °F -8.3 °F -7.6 °F 72% 30.29 in 10.0 mi North 3.5 mph - N/A Snow Light Snow
3:55 AM -0.4 °F -12.0 °F -7.6 °F 72% 30.27 in 5.0 mi NNE 5.8 mph - N/A Rain Light Freezing Rain
4:15 AM -0.4 °F -13.4 °F -7.6 °F 72% 30.27 in 4.0 mi NNE 6.9 mph - N/A Snow Light Snow
4:35 AM -0.4 °F -16.7 °F -7.6 °F 72% 30.26 in 3.0 mi NNE 10.4 mph - N/A Snow Light Snow
4:55 AM -0.4 °F -14.7 °F -7.6 °F 72% 30.26 in 3.0 mi NNE 8.1 mph - 0.01 in Snow Light Snow
5:15 AM -2.2 °F -18.9 °F -7.6 °F 78% 30.26 in 4.0 mi NNE 10.4 mph - N/A Snow Light Snow
5:35 AM -2.2 °F -15.6 °F -7.6 °F 78% 30.26 in 3.0 mi NNE 6.9 mph - 0.01 in Snow Light Snow
5:55 AM -2.2 °F -19.9 °F -7.6 °F 78% 30.26 in 3.0 mi NNE 11.5 mph - 0.02 in Snow Light Snow
6:15 AM -2.2 °F -18.9 °F -7.6 °F 78% 30.27 in 2.5 mi NNE 10.4 mph - N/A Snow Light Snow
6:35 AM -2.2 °F -18.0 °F -9.4 °F 71% 30.28 in 2.5 mi North 9.2 mph - 0.02 in Snow Light Snow
6:55 AM -4.0 °F -20.2 °F -9.4 °F 78% 30.29 in 2.5 mi NNE 9.2 mph - 0.03 in Snow Light Snow
7:15 AM -4.0 °F -20.2 °F -9.4 °F 78% 30.29 in 2.5 mi NNE 9.2 mph - 0.01 in Snow Light Snow
7:35 AM -4.0 °F -19.0 °F -9.4 °F 78% 30.29 in 2.5 mi NNE 8.1 mph - 0.02 in Snow Light Snow
7:55 AM -4.0 °F -17.8 °F -9.4 °F 78% 30.30 in 2.0 mi North 6.9 mph - 0.04 in Snow Light Snow
8:15 AM -4.0 °F -17.8 °F -9.4 °F 78% 30.31 in 3.0 mi NNW 6.9 mph - N/A Snow Light Snow
8:35 AM -4.0 °F -19.0 °F -9.4 °F 78% 30.32 in 2.0 mi North 8.1 mph - 0.02 in Snow Light Snow
8:55 AM -4.0 °F -21.2 °F -9.4 °F 78% 30.32 in 1.8 mi North 10.4 mph - 0.03 in Snow Light Snow
9:15 AM -4.0 °F -21.2 °F -11.2 °F 71% 30.33 in 2.0 mi North 10.4 mph - 0.01 in Snow Light Snow
9:35 AM -4.0 °F -19.0 °F -9.4 °F 78% 30.34 in 2.0 mi NNW 8.1 mph - 0.02 in Snow Light Snow
9:55 AM -2.2 °F -18.0 °F -11.2 °F 66% 30.34 in 3.0 mi NW 9.2 mph - 0.03 in Snow Light Snow
10:15 AM -2.2 °F -18.9 °F -11.2 °F 66% 30.34 in 2.0 mi NNW 10.4 mph - N/A Snow Light Snow
10:35 AM -2.2 °F -18.9 °F -9.4 °F 71% 30.35 in 3.0 mi NW 10.4 mph - 0.01 in Snow Light Snow
10:55 AM -0.4 °F -15.7 °F -9.4 °F 66% 30.35 in 3.0 mi NNW 9.2 mph - 0.01 in Snow Light Snow
11:15 AM -0.4 °F -18.4 °F -9.4 °F 66% 30.36 in 5.0 mi NW 12.7 mph - N/A Rain Light Freezing Rain
11:35 AM -0.4 °F -15.7 °F -7.6 °F 72% 30.37 in 5.0 mi NW 9.2 mph - N/A Rain Light Freezing Rain
11:55 AM -0.4 °F -19.2 °F -7.6 °F 72% 30.37 in 5.0 mi NW 13.8 mph - N/A Rain Light Freezing Rain
12:15 PM -0.4 °F -17.6 °F -7.6 °F 72% 30.38 in 5.0 mi NW 11.5 mph 16.1 mph N/A Rain Light Freezing Rain
12:35 PM -0.4 °F -17.6 °F -7.6 °F 72% 30.38 in 10.0 mi NW 11.5 mph - N/A   Clear
12:55 PM 1.4 °F -14.5 °F -7.6 °F 66% 30.38 in 10.0 mi NW 10.4 mph 16.1 mph N/A   Clear
1:15 PM 1.4 °F -13.5 °F -7.6 °F 66% 30.37 in 10.0 mi WNW 9.2 mph - N/A   Partly Cloudy
1:35 PM 1.4 °F -16.1 °F -9.4 °F 61% 30.37 in 10.0 mi NW 12.7 mph 17.3 mph N/A   Clear
1:55 PM 1.4 °F -16.1 °F -7.6 °F 66% 30.36 in 10.0 mi NW 12.7 mph 16.1 mph N/A   Clear
2:15 PM 3.2 °F -14.6 °F -9.4 °F 56% 30.36 in 10.0 mi NW 13.8 mph 17.3 mph N/A   Clear
2:35 PM 3.2 °F -13.9 °F -7.6 °F 61% 30.36 in 10.0 mi NW 12.7 mph 18.4 mph N/A   Partly Cloudy
2:55 PM 5.0 °F -12.3 °F -7.6 °F 56% 30.36 in 10.0 mi NW 13.8 mph 20.7 mph N/A   Clear
3:15 PM 5.0 °F -11.6 °F -9.4 °F 52% 30.35 in 10.0 mi NW 12.7 mph - N/A   Clear
3:35 PM 3.2 °F -13.9 °F -7.6 °F 61% 30.36 in 10.0 mi NW 12.7 mph - N/A   Clear
3:55 PM 5.0 °F -12.3 °F -7.6 °F 56% 30.36 in 10.0 mi NW 13.8 mph - N/A   Partly Cloudy
4:15 PM 5.0 °F -13.0 °F -7.6 °F 56% 30.36 in 10.0 mi WNW 15.0 mph 21.9 mph N/A   Scattered Clouds
4:35 PM 5.0 °F -12.3 °F -7.6 °F 56% 30.36 in 10.0 mi NW 13.8 mph 20.7 mph N/A   Partly Cloudy
4:55 PM 5.0 °F -12.3 °F -7.6 °F 56% 30.36 in 10.0 mi WNW 13.8 mph 20.7 mph N/A   Partly Cloudy
5:15 PM 5.0 °F -11.6 °F -7.6 °F 56% 30.35 in 10.0 mi WNW 12.7 mph - N/A   Clear
5:35 PM 5.0 °F -11.6 °F -7.6 °F 56% 30.36 in 10.0 mi WNW 12.7 mph - N/A   Clear
5:55 PM 5.0 °F -10.8 °F -7.6 °F 56% 30.35 in 10.0 mi WNW 11.5 mph 17.3 mph N/A   Clear
6:15 PM 3.2 °F -12.2 °F -9.4 °F 56% 30.35 in 10.0 mi WNW 10.4 mph - N/A   Clear
6:35 PM 1.4 °F -11.3 °F -9.4 °F 61% 30.35 in 10.0 mi West 6.9 mph - N/A   Clear
6:55 PM -0.4 °F -14.7 °F -9.4 °F 66% 30.35 in 10.0 mi West 8.1 mph - N/A   Clear
7:15 PM -0.4 °F -13.4 °F -9.4 °F 66% 30.35 in 10.0 mi West 6.9 mph - N/A   Clear
7:35 PM -0.4 °F -13.4 °F -9.4 °F 66% 30.35 in 10.0 mi West 6.9 mph - N/A   Clear
7:55 PM -0.4 °F -14.7 °F -9.4 °F 66% 30.35 in 10.0 mi West 8.1 mph - N/A   Clear
8:15 PM -0.4 °F -13.4 °F -9.4 °F 66% 30.35 in 10.0 mi West 6.9 mph - N/A   Clear
8:35 PM -0.4 °F -14.7 °F -9.4 °F 66% 30.35 in 10.0 mi West 8.1 mph - N/A   Clear
8:55 PM -2.2 °F -14.2 °F -9.4 °F 71% 30.34 in 10.0 mi WSW 5.8 mph - N/A   Clear
9:15 PM -4.0 °F -19.0 °F -11.2 °F 71% 30.34 in 10.0 mi SW 8.1 mph - N/A   Clear
9:35 PM -4.0 °F -19.0 °F -11.2 °F 71% 30.34 in 10.0 mi WSW 8.1 mph - N/A   Clear
9:55 PM -4.0 °F -16.3 °F -11.2 °F 71% 30.33 in 10.0 mi SW 5.8 mph - N/A   Clear
10:15 PM -5.8 °F -18.4 °F - N/A% 30.33 in 10.0 mi SW 5.8 mph - N/A   Clear
10:35 PM -2.2 °F -18.9 °F -9.4 °F 71% 30.33 in 10.0 mi West 10.4 mph - N/A   Clear
10:55 PM -2.2 °F -15.6 °F -9.4 °F 71% 30.33 in 10.0 mi SW 6.9 mph - N/A   Clear
11:15 PM -5.8 °F -19.9 °F -11.2 °F 77% 30.33 in 10.0 mi South 6.9 mph - N/A   Clear
11:35 PM -5.8 °F -14.5 °F -11.2 °F 77% 30.32 in 10.0 mi SSW 3.5 mph - N/A   Clear
11:55 PM -5.8 °F -16.7 °F -11.2 °F 77% 30.32 in 10.0 mi SSW 4.6 mph - N/A   Clear